COSMOS 2251 DEB, 34610

Orbit data source: Space-Track

COSMOS 2251 DEB, 34610 is space debris in LEO originally from a launch on Wed, 16 Jun 1993 UTC launched from the Plesetsk Missile And Space Complex (PKMTR). The debris from Iridium 33, an American commercial communications satellite, has been tracked extensively since its accidental collision with the defunct Russian satellite Cosmos 2251 in 2009. This event, occurring at high speed in low Earth orbit (LEO), generated thousands of pieces of space debris, significantly increasing the risk of further collisions. The Iridium 33 debris cloud has impacted space traffic management and orbital debris mitigation strategies, making it a subject of ongoing study in space situational awareness.

Loading next visibility...
Identifier
34610, 1993-036WF
Orbit
LEO
Country
Flag of CISCIS
Related business
Manufacturer
Unknown
Mission
Spacecraft
Bus & Motor
Unknown
Mass
Unknown
Launch date (UTC)
1993-06-16 (33 years ago)
Launch vehicle
Unknown
Launch site
Plesetsk Missile And Space Complex (PKMTR)
Object type
Payload
Rocket body
Debris
Shape & HBR
Unknown shape, 0.1 m
Radar Cross Section
Small (<0.1 m²)

Expand to show TLE details & history
Last TLE update: 20 hours ago

TLE from 20 hours ago
0 COSMOS 2251 DEB
1 34610U 93036WF  26035.36957707  .00002854  00000-0  14729-2 0  9999
2 34610  74.0190 168.2380 0181428 287.0007  71.1319 14.07419179863140
Epoch: 2026-02-04T08:52Z
TLE epoch observation values (Epoch: 2026-02-04T08:52:11.458Z)
Latitude
-0.00005°
Longitude
-99.3469°
Altitude
830.425 km
Speed
7.459 km/s
True Right ascension
11h 12m 57s
True Declination
0° 00' 00"
Sunlit
Object was in full shadow at epoch
Visualization orbit readout
Latitude
Unknown
Longitude
Unknown
Altitude
Unknown
Speed
Unknown
Apparent Right ascension
Unknown
Apparent Declination
Unknown
Sunlit
N/A
Visualization observer readout
Local Sidereal Time
07:15:39
Azimuth
Unknown
Elevation
Unknown
Doppler factor
Unknown
Orbital elements
Apogee altitude
997.299 km
Perigee altitude
734.446 km
Semi-major axis
7,244.01 km
Eccentricity
0.01814
Inclination
74.019°
RAAN
168.238°
Arg. of periapsis
287.0007°
True anomaly
73.11333°
Mean anomaly
71.1319°
Eccentric anomaly
72.12121°
Mean motion
3.52026 °/min
Orbital period
102.27 mins
BSTAR
0.0014729
Loading maneuver chart data...
Computing Atmospheric mass density...

Documentation

Showing up to 5 results
|